Home   Weather   Arnstadt   Past weeks
Flag for Germany

Past Weather in Arnstadt, Thuringia, Germany — Yesterday and Last 2 Weeks

Now
55 °F

Scattered clouds.


Feels Like: 51 °F
Forecast: 58 / 53 °F
Wind: 17 mph from Southwest

Location: Erfurt-Bindersleben

Current Time: Oct 16, 2019 at 11:51:06 am

Latest Report: Oct 16, 2019 at 11:20 am


Visibility: N/A

Pressure: 29.89 "Hg

Humidity: 77%

Dew Point: 48 °F

Location of ArnstadtLocation

Past Weather in Arnstadt — Graph

°F

Arnstadt Temperature Yesterday

Maximum temperature yesterday: 70 °F (at 11:50 am)
Minimum temperature yesterday: 52 °F (at 7:50 am)
Average temperature yesterday: 62 °F

High & Low Weather Summary for the Past Weeks

 TemperatureHumidityPressure
High77 °F (Oct 14, 2:20 pm)100% (Oct 2, 9:20 am)30.15 "Hg (Oct 2, 9:20 am)
Low34 °F (Oct 7, 7:20 am)42% (Oct 14, 3:20 pm)29.50 "Hg (Oct 2, 3:20 am)
Average54 °F79%29.87 "Hg
* Reported Oct 1 10:20 am — Oct 16 10:20 am, Arnstadt. Weather by CustomWeather, © 2019

Note: Actual official high and low records may vary slightly from our data, if they occured in-between our weather recording intervals... More about our weather records

Advertising

Arnstadt Weather History for the Previous 24 Hours

Scroll right to see more
 ConditionsComfort  
Time TempWeatherWind HumidityBarometerVisibility
10:20 am
Wed, Oct 16
54 °FScattered clouds.15 mph82%29.89 "HgN/A
9:50 am52 °FSprinkles. Scattered clouds.13 mph88%29.89 "HgN/A
9:20 am52 °FLight rain. Broken clouds.12 mph88%29.86 "HgN/A
8:50 am52 °FLight rain. Partly sunny.8 mph88%29.86 "HgN/A
8:20 am52 °FLight rain. Passing clouds.12 mph88%29.86 "HgN/A
7:50 am52 °FLight rain. Passing clouds.13 mph88%29.86 "HgN/A
7:20 am52 °FLight rain. Passing clouds.16 mph88%29.83 "HgN/A
6:50 am50 °FLight rain. Passing clouds.21 mph94%29.83 "HgN/A
6:20 am50 °FLight rain. Passing clouds.23 mph94%29.80 "HgN/A
5:50 am52 °FPassing clouds.24 mph88%29.80 "HgN/A
4:50 am54 °FPassing clouds.13 mph94%29.77 "HgN/A
4:20 am55 °FLight rain. Passing clouds.12 mph88%29.77 "HgN/A
3:50 am55 °FLight rain. Passing clouds.15 mph88%29.77 "HgN/A
3:20 am55 °FLight rain. Passing clouds.13 mph88%29.77 "HgN/A
2:50 am55 °FLight rain. Passing clouds.14 mph88%29.77 "HgN/A
2:20 am55 °FPassing clouds.16 mph88%29.74 "HgN/A
1:50 am55 °FPassing clouds.20 mph94%29.74 "HgN/A
1:20 am57 °FLight rain. Passing clouds.22 mph88%29.71 "HgN/A
12:50 am59 °FClear.22 mph82%29.71 "Hg10 mi
12:20 am59 °FPassing clouds.18 mph82%29.71 "HgN/A
11:50 pm
Tue, Oct 15
61 °FClear.16 mph83%29.71 "Hg10 mi
11:20 pm61 °FClear.13 mph83%29.71 "Hg10 mi
10:50 pm61 °FPassing clouds.12 mph77%29.68 "HgN/A
10:20 pm59 °FPassing clouds.10 mph82%29.71 "HgN/A
9:50 pm57 °FPassing clouds.8 mph88%29.71 "HgN/A
9:20 pm57 °FClear.7 mph88%29.68 "Hg10 mi
8:50 pm63 °FClear.2 mph77%29.68 "Hg10 mi
8:20 pm64 °FClear.2 mph73%29.68 "Hg10 mi
7:50 pm63 °FClear.5 mph77%29.68 "Hg10 mi
7:20 pm63 °FPassing clouds.3 mph73%29.68 "HgN/A
6:50 pm66 °FClear.2 mph64%29.68 "Hg10 mi
6:20 pm66 °FSunny.2 mph64%29.68 "Hg10 mi
5:50 pm68 °FSunny.2 mph64%29.68 "Hg10 mi
5:20 pm68 °FSunny.1 mph69%29.68 "Hg10 mi
4:50 pm68 °FSunny.5 mph69%29.68 "Hg10 mi
4:20 pm68 °FSunny.6 mph69%29.68 "Hg10 mi
3:50 pm70 °FSunny.6 mph64%29.68 "Hg10 mi
3:20 pm70 °FSunny.7 mph64%29.71 "Hg10 mi
2:50 pm70 °FSunny.6 mph64%29.71 "Hg10 mi
2:20 pm70 °FPassing clouds.6 mph64%29.71 "HgN/A
1:50 pm70 °FPassing clouds.6 mph64%29.71 "HgN/A
1:20 pm68 °FPassing clouds.6 mph69%29.71 "HgN/A
12:50 pm68 °FSunny.6 mph64%29.71 "Hg10 mi
12:20 pm68 °FSunny.5 mph64%29.74 "Hg10 mi
11:50 am70 °FSunny.5 mph60%29.74 "Hg10 mi
11:20 am66 °FPassing clouds.3 mph68%29.74 "HgN/A
Weather by CustomWeather, © 2019

See weather overview